Theta_e
323 324 324 324 325 326 326 326 325 325 324 324 323 322 322 321 321 324 326 327 336 341 340 341 340 344 350 351 351 350 350 350 349 350 350 350 351 350 351 351 351 351 350 350 351 352 352 352 351 351 350 350 349 349 349 347 344 343 342 342 342 342 342 342 342 342 343 344 345 346 346 346 345 345 346 346 346 344 345 345 345 348 349 351 352 352
324 324 323 324 326 328 327 326 325 324 324 324 322 321 321 320 321 324 325 327 333 338 340 342 340 343 349 350 350 350 350 350 350 350 350 350 350 350 351 351 351 351 350 350 351 351 351 351 352 351 351 351 350 350 350 349 348 346 344 341 342 342 342 342 342 342 342 343 343 344 344 343 342 343 343 344 345 345 347 347 347 347 348 350 351 351
323 323 323 324 326 327 328 328 326 324 324 323 322 321 319 321 322 323 326 327 329 332 339 345 342 341 347 349 349 350 350 349 350 350 350 350 350 350 350 350 351 351 351 351 351 351 351 351 351 351 351 351 350 349 350 350 350 349 347 344 342 342 342 342 343 343 342 342 342 342 343 343 342 342 341 342 343 345 346 347 348 347 348 349 350 350
321 322 323 323 325 326 326 326 326 325 324 323 322 320 319 321 321 321 325 328 328 330 338 345 342 340 343 347 349 349 349 349 349 350 350 350 349 349 350 350 351 351 350 351 350 350 350 350 350 351 350 350 350 350 350 350 350 350 350 348 345 343 342 342 343 343 343 342 342 342 342 343 342 342 341 343 344 345 346 346 347 346 347 348 349 349
322 323 323 324 325 326 325 325 326 325 324 323 323 321 320 322 322 322 325 327 329 329 336 340 336 337 341 344 348 348 348 348 347 349 349 349 349 348 349 350 350 350 350 350 350 350 350 350 350 350 350 349 349 349 349 350 350 350 350 350 348 346 344 342 342 342 343 343 343 343 343 344 344 344 343 344 344 345 346 346 346 345 346 347 348 349
322 322 323 324 325 325 324 325 325 324 323 322 324 323 322 323 323 324 324 325 324 323 334 338 331 334 341 342 346 347 347 348 345 347 347 347 349 348 348 349 349 350 349 348 349 348 349 349 350 350 349 349 349 350 349 348 349 349 350 350 349 349 348 345 343 342 342 343 343 343 343 343 344 344 343 343 343 343 344 345 345 345 346 346 347 349
323 323 324 325 324 324 325 324 324 324 322 320 323 324 324 323 323 324 323 322 321 322 333 337 331 333 337 337 343 345 345 347 345 345 346 346 347 347 347 348 349 350 349 348 347 347 348 348 349 349 349 349 349 349 348 348 349 349 349 349 350 350 349 348 346 345 343 342 343 343 342 341 341 341 340 340 341 342 343 344 345 344 345 346 346 347
325 324 324 325 324 324 323 323 324 325 322 321 324 324 324 324 323 323 322 320 323 326 328 330 331 331 332 335 338 342 344 345 344 343 344 344 345 346 346 346 348 349 349 349 347 348 347 348 348 348 348 349 348 348 348 348 349 349 349 349 349 350 350 349 348 346 344 343 343 342 342 342 340 338 338 339 339 341 342 343 343 343 343 345 345 345
326 325 324 324 324 323 323 323 325 325 323 323 324 324 324 324 323 323 323 321 323 323 319 323 327 326 336 348 340 338 342 342 343 342 342 343 343 344 345 345 347 348 348 348 347 347 347 347 347 346 346 347 347 348 347 348 348 348 349 348 349 350 350 350 350 348 345 343 344 344 344 343 340 338 338 338 338 339 341 341 341 341 341 343 345 344
326 326 324 324 324 324 323 324 325 324 324 324 323 325 324 323 323 323 324 322 322 321 317 321 324 321 334 351 342 336 340 339 341 341 339 341 341 342 344 343 345 347 347 348 347 346 346 346 346 345 345 345 346 347 346 347 347 348 348 349 349 349 349 350 350 349 347 344 344 346 346 345 342 340 338 338 338 338 339 340 339 339 339 341 344 344
325 325 325 325 325 324 324 324 323 323 324 324 323 323 322 322 324 324 326 325 320 319 318 319 325 323 325 337 340 337 339 339 340 340 339 339 339 340 342 343 343 344 346 347 346 346 345 345 345 344 345 344 345 347 347 347 348 347 348 349 349 349 349 350 350 350 349 346 345 346 346 346 344 343 341 339 338 338 338 338 338 337 337 341 344 343
324 325 325 325 324 324 325 323 322 323 323 323 322 321 321 320 321 319 321 323 317 316 320 321 325 324 320 329 340 339 339 340 339 339 339 338 338 338 340 341 342 343 344 345 345 346 345 345 345 345 345 345 345 346 347 347 347 348 348 348 349 349 349 350 350 350 350 349 347 346 346 346 346 346 344 341 338 337 337 337 336 335 337 342 344 344
322 324 324 325 325 325 324 323 323 322 322 323 321 320 319 316 318 317 316 319 318 319 328 327 322 322 322 330 343 341 339 340 339 339 339 338 337 337 339 340 341 341 343 344 344 345 345 345 345 345 344 345 346 346 346 347 347 348 348 348 348 349 349 349 350 350 350 349 349 348 347 346 345 346 346 343 339 337 336 336 335 335 338 342 344 344
320 322 323 323 324 324 324 323 321 320 321 321 319 318 317 315 316 317 316 318 319 321 328 328 324 323 324 332 342 341 339 340 339 339 339 338 338 337 338 339 340 341 341 343 344 344 345 345 344 344 344 345 345 345 346 346 347 348 348 348 348 348 349 349 350 350 349 349 349 349 348 347 346 345 346 344 341 338 336 335 335 336 339 341 342 342
317 320 323 322 323 324 324 323 322 323 322 320 322 320 316 317 319 318 317 319 320 321 324 324 326 326 326 335 346 340 337 339 339 340 340 340 340 338 338 338 338 340 340 341 343 343 344 344 344 344 344 344 345 345 346 346 347 347 347 348 348 348 349 349 349 350 349 349 349 350 349 348 347 346 345 344 342 339 336 335 336 338 340 340 340 341
317 318 324 323 323 324 324 324 323 323 321 319 322 320 315 321 325 320 322 327 324 322 322 322 330 336 335 340 345 337 338 340 338 340 340 339 341 340 339 339 338 339 339 340 342 343 343 343 343 344 344 344 345 345 346 346 346 347 347 348 348 348 349 349 349 349 349 349 349 350 350 349 349 347 345 344 342 340 337 336 337 339 340 340 340 341
317 318 325 323 323 325 324 325 324 321 322 321 318 317 319 324 322 317 320 325 320 318 321 324 327 332 333 334 338 336 338 341 339 341 340 339 341 340 340 340 339 339 339 339 341 342 343 343 343 344 344 344 345 345 346 346 346 347 347 348 348 349 349 349 350 350 349 349 349 349 350 350 349 348 347 345 342 340 338 337 337 339 340 341 340 340
320 319 324 324 323 324 322 324 324 323 324 322 317 317 321 321 321 321 318 317 316 316 321 325 322 322 326 334 343 341 339 340 340 341 341 339 339 339 340 341 340 340 340 339 340 341 342 343 343 344 344 344 345 345 345 346 346 347 347 348 349 349 350 349 350 350 349 350 350 349 350 350 349 349 348 346 343 340 339 338 337 338 340 341 341 341
322 318 323 326 323 324 324 323 323 323 323 322 321 321 322 318 316 320 320 316 315 314 317 322 323 324 326 334 342 339 338 341 340 340 341 340 339 339 339 341 341 341 341 340 340 341 341 342 343 344 344 344 345 345 345 346 346 347 348 348 348 349 349 349 349 350 350 349 349 349 349 349 349 349 348 348 345 342 340 338 337 337 338 340 341 342
322 318 319 324 324 323 325 323 320 322 323 323 322 320 323 321 317 318 320 317 318 318 318 317 318 322 329 338 342 340 343 343 338 340 341 338 339 339 338 341 341 342 342 341 341 341 341 342 343 343 344 344 344 345 345 346 347 347 348 348 349 349 349 350 350 350 350 350 350 349 349 349 349 349 349 348 347 344 340 337 337 337 337 338 340 342
323 320 317 322 325 321 322 323 321 322 323 322 320 318 318 320 319 318 319 319 321 325 325 320 314 321 336 346 345 343 346 343 338 339 340 338 337 338 339 340 341 342 342 342 342 342 341 342 342 342 343 343 344 345 345 346 347 347 348 348 349 350 350 350 350 350 350 350 350 350 350 349 349 349 349 349 348 347 341 336 336 336 337 338 339 342
321 321 318 319 320 318 321 325 324 324 325 323 321 320 317 318 319 316 317 321 321 323 329 324 314 319 337 343 342 345 347 344 340 338 338 338 336 337 339 340 340 342 342 343 343 343 342 342 342 342 343 344 344 345 346 346 347 347 348 349 349 350 350 350 350 350 351 350 351 350 350 350 349 349 349 349 349 348 344 338 336 336 337 338 339 341
324 323 319 317 319 320 323 325 325 324 325 326 324 323 321 321 320 314 315 321 320 319 326 326 316 321 341 345 341 345 348 339 333 333 336 337 335 338 339 339 341 341 341 343 343 344 344 343 343 343 343 344 344 346 346 346 347 347 347 348 349 350 350 350 350 350 350 351 350 350 350 350 350 349 350 350 349 349 346 341 337 336 337 338 339 341
326 324 319 317 320 323 323 324 324 325 325 324 323 325 323 321 320 318 323 327 321 317 320 321 315 319 342 353 344 341 344 337 330 330 333 334 335 338 338 338 341 340 341 343 342 344 344 344 344 344 343 344 344 345 346 346 347 347 347 348 349 349 349 350 350 350 351 351 350 350 351 350 350 350 350 350 350 349 346 343 339 336 337 338 339 341
325 325 321 317 318 320 321 322 320 322 323 323 324 325 323 324 322 321 328 326 320 319 320 318 315 321 346 362 348 337 340 342 339 332 330 332 334 336 338 338 340 340 340 342 342 343 344 344 345 345 344 345 345 345 346 346 347 347 348 349 348 348 349 349 350 351 350 351 350 351 351 350 351 351 351 351 351 349 347 344 341 337 336 338 339 341
323 326 323 318 318 318 318 320 323 323 321 322 326 324 323 326 321 319 323 319 320 324 321 317 321 331 347 351 338 334 336 338 341 333 329 333 333 334 337 337 338 340 341 341 342 343 343 344 345 345 346 345 345 346 346 346 347 347 348 349 348 349 349 350 350 351 351 351 351 351 351 351 351 351 352 352 351 350 349 347 343 338 337 337 339 341
325 328 326 323 323 320 319 324 333 332 322 318 323 323 323 326 322 322 322 318 324 328 321 326 334 328 330 339 338 338 336 329 331 332 329 331 331 332 336 336 337 339 339 341 342 342 343 344 345 345 346 346 346 346 346 346 347 348 348 348 349 349 350 350 350 351 351 351 351 351 351 351 352 352 352 352 352 351 350 348 345 340 337 337 339 340
324 326 326 325 326 324 321 324 329 329 322 319 322 322 323 325 323 322 320 321 331 326 315 333 348 327 327 347 348 343 339 332 333 334 330 328 328 331 334 335 338 338 339 341 341 342 343 343 344 345 345 346 346 346 347 347 347 347 348 348 348 350 350 351 351 351 352 352 352 352 352 351 352 352 352 352 352 352 351 350 346 341 338 338 338 339
320 324 325 324 323 323 323 323 323 325 324 322 323 322 322 325 323 321 321 324 332 323 315 334 348 331 329 342 340 339 342 336 332 333 330 328 329 331 332 335 337 337 339 340 341 342 343 342 344 345 345 346 346 346 347 347 348 348 349 349 349 350 350 351 351 351 352 352 353 352 352 352 352 353 353 353 353 353 352 351 348 344 341 339 337 338
320 326 326 323 322 322 323 324 323 322 324 322 323 324 323 325 323 322 323 325 326 325 323 334 342 334 330 333 332 333 333 329 328 330 332 331 331 331 332 334 336 337 338 340 341 341 342 342 343 343 345 346 345 347 347 347 348 349 349 349 350 350 351 352 352 352 352 352 352 352 353 353 353 352 353 353 353 353 353 352 350 348 344 339 336 337
319 325 325 321 323 323 322 324 323 321 323 322 323 325 323 324 324 322 323 325 324 324 326 330 334 334 332 332 332 327 323 324 330 333 333 333 332 332 333 334 335 336 338 340 341 342 342 343 343 343 344 345 345 346 347 347 348 349 349 350 349 350 350 352 352 352 352 352 352 353 353 354 353 353 354 354 354 354 354 353 352 350 346 341 338 336
317 322 323 321 323 324 323 323 323 322 322 320 320 324 323 321 323 322 323 325 324 324 325 326 326 329 331 332 332 329 326 329 336 334 329 329 333 335 335 335 334 335 338 340 341 342 342 343 343 343 344 344 345 346 346 347 348 348 350 350 350 350 351 351 353 352 352 352 352 353 354 354 354 354 354 354 354 354 354 354 353 351 348 344 339 336
316 319 320 321 324 325 322 322 322 322 321 319 319 323 324 323 323 323 324 326 325 324 324 322 322 327 330 329 329 330 331 333 333 327 325 328 333 336 337 337 335 335 337 340 341 342 343 343 343 344 344 344 345 345 346 347 347 348 349 349 349 350 351 352 352 352 352 352 353 353 354 354 355 355 354 355 355 355 355 355 354 352 349 345 341 338
318 319 319 320 324 324 322 321 324 323 319 320 323 324 325 325 324 323 323 325 324 324 324 324 326 327 327 330 332 330 330 332 331 330 333 336 333 335 340 341 339 339 337 339 341 342 343 343 343 343 344 344 345 345 346 346 347 346 347 349 350 351 351 352 352 353 353 352 353 354 354 355 355 354 354 355 356 356 356 355 353 351 348 346 345 342
317 318 318 320 323 324 323 323 326 326 324 327 333 333 326 325 325 325 327 329 328 326 326 327 329 331 335 336 331 328 333 339 342 344 346 344 337 335 339 341 342 342 339 339 340 341 342 343 344 344 345 345 345 345 346 346 346 347 347 349 351 351 351 352 352 352 353 352 353 353 354 355 355 354 355 356 357 357 356 355 354 352 349 349 346 342
316 317 318 321 323 324 326 326 327 329 329 334 339 335 326 325 328 328 331 339 345 342 335 329 333 347 353 340 329 331 341 346 349 351 350 348 345 340 337 338 341 342 342 341 340 341 342 341 342 342 342 343 345 345 346 346 346 346 347 349 350 350 350 351 351 352 352 353 354 353 354 355 355 355 356 357 357 357 356 355 355 353 351 350 346 344
315 316 318 321 323 325 325 326 327 327 327 330 334 333 329 328 328 328 333 343 356 354 343 337 343 355 352 337 331 336 343 346 353 356 351 349 349 346 342 340 340 341 343 344 342 342 342 342 342 343 342 342 344 344 345 346 345 346 348 349 350 350 351 351 351 352 352 353 354 354 354 355 356 356 357 357 358 357 356 356 355 354 353 351 348 346
315 317 318 320 324 325 325 326 327 326 328 332 334 334 334 331 331 332 334 346 362 358 345 345 350 349 344 338 335 336 342 355 367 363 353 349 348 347 346 344 342 342 342 342 343 344 344 343 343 344 343 344 345 345 345 345 346 347 348 349 350 350 351 352 352 352 352 352 353 353 354 355 357 357 357 357 358 357 357 357 356 355 354 352 348 345
316 318 320 322 325 326 325 327 327 326 332 339 335 334 335 331 333 335 328 339 360 358 344 347 352 347 343 339 335 337 350 370 377 365 355 352 349 346 346 346 345 345 343 341 341 341 342 344 345 346 346 346 346 346 347 347 347 348 349 350 351 351 351 351 351 351 351 352 352 354 355 356 357 357 357 357 357 357 358 357 357 357 356 354 350 347
323 328 329 326 326 326 327 330 328 327 334 338 333 333 335 333 336 333 322 332 356 354 342 347 356 352 344 336 338 350 362 367 369 361 353 352 352 348 344 343 342 342 342 341 340 339 338 339 341 343 347 348 348 348 347 347 348 348 349 350 351 352 351 348 348 349 351 352 354 355 355 356 357 357 357 357 357 358 358 358 358 358 357 355 353 352
333 336 336 331 328 331 335 336 333 331 336 336 332 333 334 335 334 329 326 338 353 351 345 347 350 349 345 341 348 360 359 354 355 354 352 354 355 351 347 345 343 341 340 338 337 338 337 336 336 339 342 345 348 349 349 348 348 348 349 349 350 351 348 343 342 345 348 353 354 355 356 356 357 357 357 357 358 358 359 359 358 358 357 357 356 355
335 337 339 338 336 337 339 339 336 334 334 333 332 333 336 336 332 332 339 346 349 348 349 348 346 348 348 346 349 352 349 347 349 349 350 353 355 354 353 350 345 344 343 341 340 338 337 336 336 337 338 340 342 345 348 351 351 350 350 350 350 350 348 345 346 347 351 354 355 355 356 356 357 357 357 358 358 359 359 359 359 358 357 357 357 356
336 337 338 340 340 339 339 340 341 339 334 332 333 335 337 338 336 337 343 348 348 347 347 346 345 347 347 346 346 346 346 347 347 346 347 348 350 352 354 351 348 347 345 344 344 343 342 341 338 337 337 336 336 338 341 344 347 350 352 352 350 349 349 349 349 351 354 357 357 357 357 356 356 357 358 358 359 359 360 360 359 359 358 358 358 358
334 336 336 338 340 341 342 344 342 337 333 332 333 334 333 333 335 339 344 347 346 345 344 344 345 345 344 345 344 343 344 344 345 346 347 347 347 347 349 350 351 351 349 346 343 344 346 347 345 343 341 339 337 336 336 337 339 342 345 347 347 351 354 353 352 353 354 355 356 357 357 357 357 357 357 358 358 359 360 360 360 360 359 358 358 359
330 333 335 336 337 340 344 344 338 333 333 333 332 331 329 330 334 340 344 343 343 343 343 343 343 344 344 343 342 341 343 343 343 345 346 347 348 347 347 348 348 349 351 350 349 349 349 350 350 349 348 345 342 339 338 339 340 342 343 343 348 354 357 358 357 356 354 354 353 354 355 356 357 357 358 358 359 360 360 360 360 360 360 359 359 358
328 329 334 336 336 336 338 337 334 332 333 332 329 327 328 328 331 336 338 337 338 340 341 342 343 343 341 341 342 342 341 341 342 342 342 344 345 346 348 349 348 348 349 349 350 351 351 351 352 351 350 349 347 344 343 343 344 345 345 345 350 354 356 358 360 359 357 357 356 355 356 358 358 358 358 358 359 360 360 360 361 360 360 360 359 359
326 327 333 336 336 335 334 334 334 333 333 332 328 326 327 327 328 330 332 332 334 335 337 339 341 342 340 339 340 342 342 342 342 342 342 342 342 343 345 347 347 348 349 349 350 350 350 351 352 352 351 350 349 347 346 344 343 344 344 345 347 350 352 354 356 355 355 357 359 359 360 360 359 359 359 359 360 361 361 361 361 360 360 360 359 359
327 328 332 335 336 336 334 334 333 331 330 329 327 326 326 326 326 327 328 329 331 332 334 337 339 340 340 340 340 341 342 341 341 341 342 341 342 342 343 343 345 346 348 349 351 351 351 352 352 352 353 352 352 351 349 348 346 345 345 344 344 344 348 352 356 357 355 356 359 361 362 361 361 360 359 360 360 361 362 362 361 361 361 360 359 360
325 328 332 335 336 335 334 333 332 333 332 329 326 325 326 325 325 325 326 327 328 329 332 335 336 337 338 339 340 341 341 340 341 341 341 341 341 341 342 342 344 345 346 349 350 350 351 351 351 352 352 352 353 353 352 352 351 350 351 351 350 351 353 357 361 363 363 361 362 363 363 362 362 361 360 360 361 361 362 362 362 361 361 361 360 360
324 327 331 334 335 334 335 335 334 336 337 331 326 326 326 324 323 324 324 324 325 326 327 329 331 332 333 335 338 340 340 340 341 340 340 341 341 341 341 342 342 343 345 347 348 349 349 350 349 350 351 351 352 352 352 351 351 351 353 354 354 356 358 360 361 362 363 364 363 363 363 363 362 361 361 361 361 361 362 362 362 362 361 361 360 359
324 327 329 333 335 334 333 333 331 331 333 329 325 326 326 324 323 324 324 324 324 325 326 327 328 329 330 332 335 338 340 340 341 341 341 342 342 342 342 342 342 342 343 344 345 346 346 347 347 348 348 349 349 349 350 350 349 349 349 350 350 352 356 360 363 363 363 363 363 363 364 363 363 362 362 362 362 362 363 363 363 362 361 360 360 359
Wind_Speed
13 6 6 9 6 6 6 6 8 7 7 8 5 5 6 5 8 9 4 3 4 5 7 11 11 10 15 17 17 25 28 23 22 24 27 30 32 34 36 37 40 43 46 45 44 43 41 40 39 38 37 35 35 34 33 34 35 36 36 37 37 35 34 34 34 34 33 32 31 31 31 30 28 26 25 25 24 23 22 21 19 18 17 16 15 14
10 8 9 8 6 7 7 6 7 7 8 8 6 6 7 5 9 11 4 3 3 4 7 7 7 9 15 17 17 23 22 19 24 25 27 32 33 35 38 39 43 45 44 41 42 44 42 42 41 40 39 39 38 37 36 36 35 35 36 38 38 36 36 36 36 35 35 35 33 33 32 30 28 27 26 26 24 23 21 21 20 19 18 17 16 15
6 9 10 7 6 6 6 6 7 7 7 7 6 5 7 7 7 9 6 5 4 4 5 5 6 9 12 16 17 22 22 24 33 35 35 38 36 36 38 40 43 42 39 39 43 44 44 44 43 42 43 42 41 39 39 39 37 35 36 37 38 38 38 38 37 37 36 35 34 33 32 29 28 27 26 25 24 23 22 21 21 21 20 19 17 16
6 8 8 8 7 7 6 6 6 6 6 5 6 4 8 9 4 5 5 2 2 3 5 6 6 5 7 9 12 21 26 27 33 37 36 39 41 42 45 45 44 42 39 41 44 46 46 45 45 45 46 45 44 42 41 41 40 39 37 37 37 38 39 39 39 39 37 35 34 33 31 29 28 26 25 25 25 24 24 23 22 22 22 20 19 17
8 5 8 10 7 9 9 8 6 6 5 5 7 6 9 12 7 6 4 6 5 4 2 5 3 1 6 9 9 16 21 20 24 28 28 34 40 43 45 45 46 46 45 46 46 47 48 48 48 48 48 47 46 46 44 43 43 42 40 39 38 37 38 39 40 40 38 36 36 35 34 32 30 29 28 28 29 28 27 25 24 23 22 21 20 18
10 7 10 10 8 10 10 9 8 7 5 7 9 10 13 13 8 6 4 6 5 6 3 5 3 4 6 13 13 12 13 14 17 21 25 32 35 36 38 40 43 45 47 49 49 49 50 50 50 50 50 49 48 48 47 45 44 43 42 41 40 38 37 37 38 40 40 39 38 38 38 37 35 34 33 32 31 30 28 27 25 24 22 21 20 20
7 8 9 9 10 11 10 9 10 8 5 7 7 9 12 12 9 7 3 3 2 5 5 3 4 4 5 11 15 13 14 17 16 17 23 30 33 35 37 39 42 43 45 47 48 49 51 52 52 52 51 51 51 49 48 47 46 44 44 43 42 41 38 37 37 38 40 41 41 40 40 39 37 36 35 34 31 30 28 27 25 24 23 22 22 21
6 10 10 10 11 10 10 10 9 9 7 8 4 4 9 9 9 9 4 3 5 5 6 4 3 3 4 9 15 15 17 17 16 16 19 26 33 37 39 40 43 45 46 47 47 48 51 52 53 54 54 54 53 51 50 49 49 47 46 44 43 43 41 38 37 37 39 41 42 42 41 40 39 37 35 33 31 30 28 27 26 24 23 23 23 23
8 12 13 13 11 8 9 9 9 11 9 9 4 4 8 9 8 7 4 5 5 4 7 7 4 4 4 6 11 14 16 16 18 19 18 24 34 38 39 41 44 46 48 49 50 50 51 53 54 54 55 55 54 53 52 51 50 49 48 46 45 44 44 42 39 37 38 39 40 41 41 41 40 38 36 33 32 31 30 29 27 26 25 24 25 24
6 15 18 14 11 9 8 8 10 12 10 8 5 6 8 7 6 5 5 5 3 3 9 10 5 4 6 4 8 10 13 16 18 18 18 25 36 39 40 43 44 45 47 48 51 52 53 54 55 55 55 55 55 55 53 52 51 51 50 49 48 46 45 44 42 39 38 38 39 40 40 41 41 39 38 37 35 33 32 31 30 28 27 26 26 26
4 12 17 12 10 11 9 9 11 13 13 7 4 5 7 6 4 1 3 4 2 4 10 12 8 7 6 5 7 10 13 17 16 15 17 23 32 38 41 43 44 45 47 48 50 52 54 55 55 55 55 56 56 55 55 54 54 53 52 51 50 48 47 46 45 43 40 39 39 40 40 40 39 39 40 40 39 37 35 33 32 30 29 28 27 27
6 7 7 7 13 15 9 9 10 11 13 8 4 5 5 5 4 3 1 3 5 8 8 11 9 9 9 6 6 11 16 20 19 18 19 20 27 38 42 44 46 47 48 49 50 51 52 53 53 54 55 56 55 56 56 56 55 55 54 53 52 50 49 48 47 45 43 41 40 40 40 40 39 38 39 40 40 39 37 35 33 31 30 29 28 28
7 8 5 5 13 15 10 7 8 7 10 9 5 5 4 3 3 5 5 2 5 8 6 8 9 7 9 7 8 13 17 19 19 21 24 25 31 40 44 46 47 46 48 48 49 51 51 52 53 54 55 55 55 56 56 56 56 56 55 55 54 52 51 50 49 47 45 44 42 41 40 39 39 39 39 39 39 39 38 35 34 33 32 30 29 29
3 6 7 7 8 12 12 8 7 6 7 9 7 6 6 5 5 6 5 3 4 6 5 7 7 4 5 6 10 15 17 22 25 28 32 33 39 45 47 48 47 46 47 49 50 50 51 53 55 56 57 56 56 57 57 57 57 57 57 56 55 54 53 52 51 49 48 46 45 43 41 39 39 40 40 39 38 39 38 36 35 34 32 31 29 29
6 5 8 11 7 10 13 11 9 7 6 9 7 7 7 6 5 4 3 3 5 6 5 3 5 5 5 6 11 15 18 25 32 37 40 39 42 46 45 43 43 44 46 48 50 51 53 55 56 57 57 58 58 58 58 58 58 57 57 58 57 56 55 54 52 51 50 48 46 45 43 41 39 39 40 40 39 38 38 37 36 34 33 32 30 28
9 8 7 10 8 10 12 10 9 8 5 7 6 7 9 7 5 3 4 6 4 4 4 3 3 5 5 5 8 13 17 21 28 35 36 34 36 37 33 34 39 44 46 47 50 51 53 55 56 57 58 58 59 58 58 58 58 58 58 58 58 57 56 55 54 53 51 49 48 47 45 43 41 39 39 40 39 38 38 38 37 35 33 32 30 29
6 8 3 4 6 10 13 10 10 10 6 3 5 8 7 7 7 6 5 3 2 4 5 2 3 4 3 6 6 8 12 14 18 22 24 27 30 29 28 33 40 44 46 48 51 53 55 55 56 57 58 58 58 58 59 60 60 60 59 59 58 57 57 56 55 54 52 50 49 48 47 45 43 42 40 39 39 39 39 39 38 36 34 33 32 30
4 6 4 8 9 13 15 11 8 11 10 5 5 8 4 3 6 5 3 4 4 6 6 2 5 5 3 5 4 6 9 11 13 15 17 23 24 22 26 35 41 46 49 50 52 54 55 56 57 58 59 59 59 59 60 61 61 60 60 59 59 58 57 57 56 55 53 51 50 49 48 47 45 43 41 38 38 39 39 40 40 39 37 35 33 32
6 5 6 9 12 11 10 9 6 8 12 8 5 7 6 4 6 4 4 6 6 6 6 3 3 5 5 5 4 7 9 11 12 14 15 17 17 19 26 34 40 45 47 47 49 52 54 56 57 58 59 59 59 59 60 60 60 60 60 59 59 58 58 57 56 55 54 53 51 50 49 47 46 44 42 40 38 39 41 41 41 40 40 38 35 34
6 5 6 6 10 9 5 6 7 8 10 6 2 5 5 4 6 6 4 4 4 4 5 3 2 5 6 6 7 9 11 12 12 12 13 15 19 25 30 34 39 43 44 46 49 51 54 56 57 59 60 60 59 59 59 58 58 59 59 59 59 58 57 57 56 56 55 54 53 52 50 48 47 45 43 41 39 40 41 41 41 41 41 39 38 36
4 4 6 5 4 7 4 5 10 10 9 7 5 6 6 3 2 4 3 2 4 4 3 3 5 6 5 5 9 10 10 11 12 12 13 16 23 31 35 38 41 43 45 48 49 52 56 57 58 59 60 60 59 58 56 55 56 57 58 58 59 58 57 57 57 57 56 55 54 53 51 49 48 46 44 42 41 40 41 41 42 42 41 40 39 38
4 3 6 7 5 6 5 7 11 13 11 9 8 7 8 5 3 4 5 2 2 5 5 5 7 8 5 5 8 9 9 10 12 13 12 15 24 31 37 43 44 44 47 49 50 53 56 56 57 57 58 58 56 55 54 54 55 56 57 58 58 58 58 59 58 58 57 55 55 54 52 50 48 46 44 43 42 41 40 42 42 42 41 41 40 40
3 3 8 9 8 7 9 10 11 13 13 10 9 8 7 5 5 6 7 4 2 4 2 3 6 9 6 6 8 9 10 10 11 12 11 16 27 33 37 44 45 45 48 49 50 53 54 56 57 56 55 55 54 54 53 54 55 56 57 58 58 58 59 59 58 58 56 55 55 54 52 51 49 47 45 43 42 41 41 41 42 41 42 42 41 40
9 3 6 7 6 5 7 7 5 6 9 9 9 8 8 7 7 7 6 5 4 5 2 2 6 7 5 5 7 8 7 5 7 14 15 17 26 33 37 41 42 43 45 46 48 52 53 54 54 53 53 53 53 54 54 54 55 56 57 57 58 59 59 58 58 57 56 56 55 54 53 52 50 49 47 45 43 42 41 41 41 42 41 41 41 41
5 3 2 3 5 6 5 5 5 5 6 4 6 9 12 14 11 6 2 3 4 6 7 5 7 5 4 3 3 5 5 4 5 13 18 18 22 29 34 35 35 36 40 42 46 49 50 49 49 51 53 53 54 54 55 55 55 56 56 57 58 59 58 57 57 57 56 56 55 54 54 53 51 50 48 46 44 42 41 40 41 41 41 41 41 41
3 3 3 4 7 9 7 6 7 5 4 4 5 10 14 17 16 8 3 4 6 5 6 7 6 4 6 6 4 7 7 8 8 11 15 19 22 26 31 34 35 34 35 40 44 46 47 47 49 51 53 54 55 55 55 56 55 55 56 57 58 58 57 57 57 56 56 56 55 54 54 53 52 51 49 47 44 43 41 41 41 41 42 42 42 41
2 2 4 5 6 7 6 7 6 7 7 9 11 12 12 14 17 12 6 6 6 4 6 8 5 3 5 6 6 8 7 9 11 9 10 17 21 23 28 34 36 36 36 39 42 45 45 46 48 51 53 54 54 55 56 56 56 56 56 57 57 57 56 57 56 56 56 55 55 54 54 53 52 51 49 47 45 43 42 41 41 41 42 42 42 41
1 3 5 5 7 7 8 13 10 9 12 14 13 14 13 12 14 15 12 9 9 7 9 8 7 6 7 7 8 8 8 9 9 7 9 16 21 22 25 30 33 35 37 39 43 44 44 46 49 51 52 54 54 55 55 56 56 56 56 57 56 56 56 56 56 55 55 55 55 54 53 52 51 50 48 46 45 44 43 42 41 41 42 42 42 42
1 4 4 7 13 13 11 14 13 11 12 13 14 16 14 13 15 17 16 11 11 10 12 9 10 11 9 8 9 9 10 10 10 10 13 17 21 22 24 26 29 32 35 39 42 43 43 45 49 50 52 53 53 53 54 54 54 55 55 55 55 55 55 55 55 55 55 55 55 54 53 52 50 49 48 47 46 45 44 43 42 41 42 43 43 42
2 4 6 10 14 15 14 14 13 12 11 10 13 16 16 16 18 18 17 14 14 15 12 9 13 13 10 10 11 13 16 13 9 9 11 14 17 20 23 25 29 31 33 37 42 44 45 48 50 50 51 51 52 53 54 54 54 54 55 55 55 55 55 54 55 55 55 55 55 54 53 52 51 49 48 48 47 46 45 44 43 42 42 43 43 43
3 4 8 10 10 11 13 11 9 11 13 12 11 12 15 17 19 19 16 12 11 13 9 8 11 10 8 8 10 14 16 10 5 7 9 11 13 17 21 25 30 32 33 36 41 44 46 47 48 48 49 51 53 53 54 54 54 54 54 54 55 55 55 54 54 55 55 55 54 53 53 52 51 50 49 48 48 47 46 45 44 43 42 42 43 43
2 3 6 7 6 8 8 8 12 13 12 13 14 14 16 16 15 14 13 11 11 13 10 7 7 8 8 7 7 9 9 5 5 8 12 14 14 15 20 22 26 31 34 35 38 39 40 42 43 45 48 51 52 52 52 53 53 53 53 54 55 55 55 54 54 55 55 54 54 53 53 53 52 51 50 49 48 48 47 45 44 44 43 43 43 43
1 2 5 5 4 7 10 11 14 12 7 10 16 18 17 14 13 11 10 11 14 15 12 10 10 10 9 6 6 8 10 9 10 9 10 12 11 13 18 21 22 27 33 36 37 38 39 41 43 46 50 51 51 51 52 52 52 52 53 54 55 54 54 54 54 55 54 54 54 54 54 53 52 51 51 50 49 48 47 46 45 45 44 44 43 43
3 3 4 4 3 7 12 13 10 6 7 10 10 13 15 14 13 12 10 11 14 13 9 8 10 12 9 7 8 10 10 7 5 3 0 4 6 9 15 20 21 23 29 34 36 38 40 43 45 47 48 50 50 51 51 51 51 51 52 53 53 53 53 53 54 54 54 54 54 54 54 53 53 52 51 51 50 49 48 47 46 45 45 45 44 44
4 4 4 3 3 6 9 8 5 4 8 8 4 7 13 14 13 13 13 11 13 13 9 5 8 11 8 7 8 8 6 9 12 12 11 8 4 2 6 12 16 18 22 29 33 35 37 39 43 45 46 48 50 49 49 49 48 48 50 51 52 52 53 53 53 54 54 54 55 55 54 54 53 52 51 51 51 50 49 49 47 46 46 46 46 45
6 5 4 3 3 4 4 3 3 6 9 9 6 1 5 8 10 11 10 8 7 8 8 8 9 7 5 7 10 15 18 16 17 17 15 13 10 7 2 2 7 11 16 21 27 32 35 37 40 40 40 44 48 49 48 47 46 47 50 51 51 51 52 52 53 54 54 54 55 55 55 55 54 52 51 51 51 51 51 50 49 48 47 47 46 46
10 7 3 3 4 4 4 4 5 8 11 7 3 4 4 1 7 11 8 6 5 4 7 9 8 5 6 9 14 20 19 12 10 11 14 15 14 11 7 4 2 6 11 15 20 25 29 33 36 35 34 37 42 44 45 44 44 47 49 49 50 50 50 51 52 53 53 54 55 55 55 54 54 52 52 52 53 53 52 51 51 50 49 48 47 47
13 10 6 5 4 4 4 5 4 5 6 4 6 12 12 12 8 8 10 5 6 4 5 8 9 9 10 11 14 15 11 8 3 4 10 13 13 13 11 9 7 4 5 9 14 17 20 24 28 31 32 33 36 39 41 42 43 46 47 48 48 48 49 50 51 51 52 53 54 54 54 54 53 52 52 53 54 54 53 52 51 51 50 49 48 47
14 11 8 7 5 4 5 4 3 4 5 5 12 17 17 20 16 5 9 6 6 3 3 7 10 11 12 13 12 10 7 6 3 5 5 10 12 13 12 11 11 10 8 6 5 8 12 16 20 24 28 30 32 34 37 41 43 44 45 47 46 46 47 48 49 50 51 52 53 53 53 53 53 52 52 53 54 54 53 52 52 52 51 49 49 48
11 8 6 7 8 6 5 4 4 3 2 7 15 19 23 23 12 3 8 9 5 1 5 7 7 8 11 13 11 6 4 5 6 3 2 7 10 12 11 10 10 10 9 9 8 5 2 6 9 13 19 24 27 28 30 34 38 41 44 45 45 46 47 46 46 47 49 50 51 50 51 52 52 52 53 53 54 53 53 52 51 51 51 50 50 48
5 3 4 6 7 5 4 3 3 3 1 9 17 22 26 18 1 7 8 8 3 4 8 10 8 9 12 12 10 5 4 8 10 7 7 9 11 11 11 10 9 8 8 7 6 6 5 1 0 2 5 10 16 21 25 29 33 38 41 42 43 46 48 46 45 45 47 48 49 49 50 51 52 52 53 53 53 53 52 51 51 51 51 50 50 48
3 2 2 3 3 2 3 2 3 4 2 15 25 25 19 6 5 5 6 3 9 9 13 16 14 17 22 20 17 16 14 14 14 12 11 11 10 10 9 8 7 6 6 6 6 6 5 4 3 3 4 4 6 10 16 21 27 32 35 38 42 45 47 46 45 45 45 47 48 49 50 51 52 52 52 53 53 52 52 52 51 50 50 49 49 48
3 2 0 3 4 2 1 2 2 4 4 19 25 18 9 4 5 12 11 4 13 14 17 20 18 22 29 27 24 22 19 16 15 14 13 11 9 8 7 6 5 4 3 4 5 5 5 6 6 5 5 5 5 6 8 12 17 22 28 33 37 41 43 44 45 46 45 45 47 48 49 50 51 52 52 53 54 54 53 52 50 49 49 49 49 48
3 3 1 2 3 3 2 2 1 2 6 16 16 8 8 15 18 17 13 1 10 12 17 22 20 23 30 30 25 21 19 18 16 15 13 12 10 8 7 5 4 3 1 1 3 4 5 6 6 6 7 7 6 6 7 9 12 15 21 24 28 33 38 40 43 45 46 45 46 47 49 50 51 52 53 54 55 55 54 52 50 50 49 49 48 48
2 2 3 3 2 2 3 3 0 2 6 14 16 14 20 26 21 14 9 2 8 11 16 22 22 22 26 28 25 23 20 18 17 15 14 14 12 9 7 5 3 2 1 1 2 3 4 5 6 6 6 7 8 8 9 10 12 14 17 18 22 29 35 37 39 42 44 45 46 48 50 52 52 53 54 54 55 56 56 54 52 51 50 50 49 49
3 4 4 2 1 1 2 1 0 2 5 13 22 26 27 27 22 16 11 9 11 13 17 22 23 21 21 22 23 24 21 18 17 16 15 14 13 11 9 6 4 2 1 2 4 5 5 6 6 6 6 7 8 10 11 12 14 16 18 19 22 27 30 33 36 40 42 45 47 49 50 52 52 53 53 53 53 54 56 55 54 52 51 50 49 50
5 6 3 1 2 2 3 2 3 1 5 11 21 28 29 28 23 17 15 14 15 18 21 21 21 20 18 17 19 21 19 16 15 15 14 13 12 11 10 8 6 4 3 2 3 3 4 5 6 7 8 9 10 12 13 15 16 18 19 21 22 24 26 28 32 35 39 43 47 49 50 51 51 51 50 51 52 52 53 54 54 53 52 51 51 51
3 2 1 0 2 2 4 2 2 3 8 10 17 23 26 26 23 18 16 17 18 21 22 21 20 19 17 16 17 18 17 15 14 13 13 11 10 10 9 8 7 6 6 5 5 5 4 5 5 6 8 10 11 12 14 15 17 19 21 22 24 26 27 28 30 33 37 41 45 48 50 51 51 51 50 50 51 51 52 53 54 54 54 54 54 54
6 3 2 2 1 2 4 1 1 4 8 10 16 21 23 22 20 16 16 20 21 22 23 23 21 20 19 19 18 18 20 20 16 14 13 12 11 10 9 8 8 7 7 6 6 7 7 7 7 8 9 11 11 11 12 12 14 17 19 22 24 27 28 28 27 30 35 39 43 46 48 49 51 52 52 52 53 53 53 55 56 55 55 55 54 53
6 2 3 3 3 3 2 2 3 4 3 4 9 15 16 16 16 15 16 20 21 20 21 23 23 22 21 21 20 21 24 23 19 17 18 18 16 13 11 8 7 7 7 7 6 6 6 7 8 9 10 11 12 12 12 12 13 15 17 18 21 24 27 27 26 27 31 36 40 43 45 47 49 51 52 53 56 57 57 57 57 57 56 55 51 48
5 3 3 2 3 3 4 5 7 8 6 3 6 11 8 6 12 17 19 20 20 19 19 21 23 23 22 21 21 23 25 25 22 21 23 23 20 17 15 13 11 10 9 8 6 6 6 6 7 8 9 9 10 11 12 14 16 17 18 18 18 20 23 25 26 27 30 34 38 42 45 48 50 53 55 57 59 61 61 59 57 55 54 51 48 47
Wind_Direction
187 196 216 210 208 198 207 207 209 228 237 244 248 245 251 250 268 263 239 258 217 189 221 208 196 186 174 180 182 181 184 186 185 182 183 186 187 190 192 195 196 198 203 203 202 203 205 209 212 213 215 216 216 217 217 217 216 216 216 216 215 214 212 211 212 211 210 209 208 210 213 214 214 214 216 217 216 216 217 220 222 225 230 235 238 242
183 212 230 205 187 190 199 201 199 219 235 244 249 260 270 245 260 270 247 241 208 179 242 220 191 202 184 181 182 177 183 191 188 184 186 189 190 193 195 197 198 201 204 202 202 204 206 208 211 214 215 216 217 218 218 218 217 216 218 219 219 216 214 214 214 213 212 212 211 213 214 215 215 215 217 220 220 219 219 222 225 227 232 234 235 238
205 228 228 194 174 185 202 203 195 216 229 238 241 249 271 253 264 283 260 219 193 182 237 189 171 220 200 183 182 181 188 194 192 189 188 189 190 194 196 198 200 201 200 200 203 205 206 208 210 212 215 217 219 219 220 220 218 217 218 220 221 219 218 216 216 216 216 215 214 216 217 217 218 219 220 223 226 226 225 226 227 230 232 231 231 234
216 231 211 179 170 185 218 223 198 226 235 229 233 223 256 254 247 275 272 257 213 206 213 178 168 211 205 194 194 193 196 196 196 195 193 191 191 194 197 198 199 198 197 199 202 205 206 207 208 210 214 217 219 219 221 221 219 219 219 220 220 220 220 219 218 218 218 218 217 218 220 221 222 224 224 226 229 229 229 229 229 230 230 229 231 232
227 222 176 171 180 188 215 231 204 223 247 239 233 217 244 252 226 227 285 356 334 285 207 149 127 197 184 194 209 204 204 204 200 199 200 201 200 199 198 199 199 198 197 198 201 203 205 206 208 210 213 215 216 218 220 221 221 221 221 221 221 220 221 221 220 219 219 218 218 219 221 222 223 225 226 226 226 226 226 227 228 229 229 229 230 229
235 210 167 176 195 196 210 229 212 204 235 258 243 222 236 252 245 242 311 4 340 302 270 139 144 264 199 192 206 201 202 210 203 200 206 207 206 206 203 201 201 200 200 200 201 203 204 206 208 210 212 213 215 218 221 222 222 222 223 223 222 222 222 222 222 220 219 218 218 218 219 219 220 222 223 223 223 223 223 225 226 228 228 229 228 226
221 187 168 184 199 201 212 227 216 193 210 252 239 218 236 252 257 258 294 354 280 270 272 168 167 244 213 200 208 197 198 207 202 203 209 208 208 209 208 205 203 202 202 202 203 203 204 205 207 209 211 213 216 220 223 223 223 224 224 224 223 223 223 223 223 221 219 218 218 219 220 221 221 221 222 222 223 223 224 225 226 227 229 229 229 228
176 177 182 193 193 200 214 221 209 183 203 243 218 195 243 251 253 253 234 222 243 261 281 267 183 218 221 208 207 197 202 209 206 208 210 209 210 210 210 208 205 204 203 203 204 204 205 205 206 208 210 213 217 220 222 222 223 223 224 225 225 224 224 223 223 223 221 218 218 219 222 223 224 225 225 224 224 225 225 227 228 229 230 232 232 233
163 180 190 192 195 208 212 212 201 185 212 244 203 195 244 247 245 244 209 217 242 257 273 263 201 216 265 229 204 198 202 208 210 212 210 210 212 211 211 210 208 207 206 204 204 205 206 207 208 209 211 214 216 218 220 222 224 224 224 225 226 225 225 223 223 223 223 222 220 220 222 225 226 228 228 227 226 226 226 227 229 231 232 234 235 235
172 193 194 189 201 216 208 206 199 194 219 236 205 219 253 256 244 222 190 203 211 207 247 253 202 199 270 247 192 197 205 209 212 213 212 212 212 212 211 211 210 209 208 207 207 207 208 209 210 212 213 214 216 217 219 221 223 223 223 223 224 225 226 225 224 223 224 224 223 223 224 226 227 228 229 229 229 228 228 228 230 232 233 235 235 235
209 202 196 191 206 209 200 206 205 203 216 216 180 224 262 274 270 251 172 160 178 228 240 243 209 186 252 256 189 194 201 205 209 212 217 215 214 215 213 211 210 209 209 209 209 209 210 211 212 213 214 215 216 216 218 219 220 222 222 222 223 225 226 226 226 224 224 224 225 226 227 227 229 229 229 229 229 229 228 229 231 232 233 234 234 233
226 217 201 196 204 200 191 208 213 208 213 212 168 186 240 282 297 297 260 139 210 237 236 234 213 192 230 251 209 204 201 202 205 207 211 213 214 215 214 213 211 209 209 209 210 210 210 211 212 213 214 215 215 215 216 217 219 220 221 222 222 224 225 226 226 226 225 224 226 228 229 230 230 230 230 230 230 230 229 228 230 231 232 231 230 229
217 225 228 221 207 195 184 201 217 211 208 209 190 167 187 250 265 242 232 199 225 244 237 213 200 202 230 235 212 207 203 204 208 209 209 207 211 214 213 212 211 210 210 209 210 210 210 210 211 212 214 215 215 215 216 216 217 218 220 221 222 223 224 225 226 226 226 226 226 228 230 231 232 232 233 232 232 231 230 228 228 229 229 227 225 224
236 246 224 227 224 195 182 183 205 214 202 201 195 175 183 204 218 224 237 261 253 259 251 201 184 213 253 237 209 204 203 204 207 213 215 212 211 213 213 211 209 209 210 210 210 211 211 211 211 213 214 215 215 216 216 216 217 217 218 220 222 224 225 225 225 226 227 227 228 229 230 231 233 233 234 234 234 233 231 229 228 229 228 227 224 223
213 253 214 209 207 183 192 198 191 181 188 205 192 174 197 201 193 206 209 221 242 262 262 197 172 198 215 221 206 199 204 205 204 210 216 217 215 214 214 209 207 209 210 210 211 211 212 213 213 214 214 215 216 216 216 216 217 217 218 220 221 223 223 224 225 226 226 228 229 229 230 231 233 234 235 236 235 233 232 229 229 229 229 228 227 226
207 243 232 213 199 176 197 207 177 159 193 213 169 173 212 192 168 221 214 185 194 256 256 204 203 214 215 244 218 198 206 206 205 210 213 216 217 215 213 208 206 210 210 210 211 212 214 214 214 214 215 216 217 216 216 216 216 217 218 220 221 222 223 224 225 226 227 228 229 229 230 231 232 234 236 237 236 234 232 230 230 231 230 230 230 230
197 239 230 190 212 202 202 195 174 175 188 177 162 192 207 172 177 226 245 214 175 249 254 203 233 264 266 270 244 199 207 209 209 213 212 216 214 207 206 206 207 210 210 210 212 213 214 215 215 216 216 217 217 216 216 217 217 218 219 220 221 221 222 223 225 226 227 228 228 229 231 232 232 233 235 237 236 234 232 231 232 232 233 232 232 232
176 256 237 174 213 229 211 200 200 192 176 158 193 195 161 165 209 204 212 245 231 244 270 229 220 235 214 250 249 182 200 216 215 213 215 219 212 200 204 207 208 210 211 212 212 213 215 216 216 216 217 218 218 218 218 218 219 219 219 220 221 221 221 223 224 225 227 228 228 230 231 232 233 233 235 237 237 236 234 233 232 233 233 234 234 234
177 255 268 195 203 223 204 198 237 228 207 208 200 173 152 187 216 185 181 223 220 236 271 273 237 226 204 226 225 189 200 215 216 214 217 220 211 202 207 209 210 212 212 212 212 213 215 216 217 217 218 219 219 220 221 220 218 218 219 220 221 223 224 224 224 225 226 228 229 230 231 232 233 234 235 236 237 237 235 234 233 233 234 235 235 235
181 214 262 223 197 200 185 182 211 231 228 229 170 169 179 178 192 193 181 189 196 225 255 265 253 236 223 207 188 193 205 208 211 213 215 218 212 208 209 210 211 212 211 212 212 213 215 217 217 218 219 220 220 221 221 219 217 218 219 219 221 223 223 223 224 224 225 227 229 230 231 232 233 233 234 235 236 237 235 234 234 234 234 235 236 236
181 198 237 260 211 195 192 189 201 211 215 212 199 199 207 194 184 202 204 172 167 184 205 233 251 251 244 207 184 191 204 206 206 207 212 218 215 211 211 213 213 212 212 212 212 213 215 217 218 219 220 221 221 221 220 217 218 218 218 219 220 221 221 222 223 224 225 226 228 229 230 232 232 233 234 234 236 237 236 234 234 234 235 236 236 236
200 191 215 239 233 207 212 206 202 206 205 203 207 205 201 192 142 176 238 275 157 183 184 198 249 260 246 201 191 192 199 204 205 204 212 220 219 216 216 217 217 213 213 212 212 213 215 216 218 218 219 220 220 219 218 217 218 218 218 219 220 220 221 222 223 224 225 226 227 229 230 231 232 232 233 234 235 236 235 233 233 233 234 235 236 236
312 215 208 228 230 216 220 215 204 208 208 204 208 201 187 175 146 180 226 237 197 223 175 154 248 267 251 200 191 196 202 207 202 194 201 218 220 221 221 221 220 217 215 213 212 214 215 216 218 218 218 219 219 218 218 218 218 218 219 219 219 220 222 223 223 224 225 226 228 229 230 231 232 232 233 233 233 234 233 232 231 232 233 234 235 236
347 269 215 240 255 253 249 248 241 212 200 205 213 196 182 192 189 193 204 181 193 219 160 178 249 267 269 219 205 212 203 195 195 191 199 216 220 223 226 225 224 221 218 215 212 214 216 216 217 216 216 218 218 218 219 218 219 219 219 218 218 221 223 223 223 223 224 226 227 229 229 230 231 231 232 233 232 232 231 230 230 231 232 233 234 235
332 304 276 249 241 251 261 264 265 228 195 206 217 200 200 203 195 186 152 144 216 211 167 192 236 244 276 289 267 246 209 186 218 207 208 217 220 225 229 230 230 226 220 216 213 215 216 215 215 215 216 217 218 218 219 219 219 218 218 218 220 222 222 221 222 223 224 225 226 227 229 230 230 231 232 233 232 231 230 229 229 230 231 232 233 235
256 255 270 224 220 229 226 224 224 209 201 221 216 209 209 202 193 185 153 178 228 222 170 191 224 246 286 307 300 264 229 216 239 230 218 221 224 226 228 229 230 228 223 218 215 215 215 214 215 215 216 217 217 218 219 219 218 218 219 220 221 222 221 220 221 222 223 224 225 227 229 229 230 231 232 233 232 231 230 229 229 229 230 231 233 234
244 237 263 243 244 245 253 258 220 169 186 217 217 217 217 209 200 190 182 195 196 192 203 208 196 211 263 275 270 267 250 230 238 240 229 232 235 233 229 227 226 224 222 219 217 217 215 214 214 215 216 218 218 219 219 219 219 219 219 221 221 221 220 220 221 221 223 223 224 226 229 230 231 232 233 234 233 232 231 230 229 229 229 231 232 234
332 310 298 285 289 284 290 286 256 195 199 210 211 217 217 211 203 200 209 202 157 171 228 218 182 202 238 250 248 249 250 247 246 239 232 239 244 242 236 230 225 222 221 217 217 218 216 214 215 216 217 218 219 219 220 220 220 220 221 222 221 219 219 219 219 220 222 223 224 226 229 231 232 232 234 235 235 233 232 231 230 230 230 231 232 234
299 266 301 322 315 307 298 287 268 236 221 206 199 210 213 208 207 209 216 197 163 195 229 206 186 205 222 231 237 237 236 237 234 228 230 238 242 242 238 233 228 224 218 214 215 217 216 216 217 217 218 219 219 219 219 219 220 220 220 221 220 218 219 219 219 220 221 223 225 228 229 230 231 232 234 235 235 234 233 232 231 231 231 232 232 234
319 275 319 326 315 309 301 287 267 249 241 223 206 203 203 208 211 212 215 201 192 214 223 194 197 212 215 214 221 233 240 239 234 231 226 223 229 234 235 235 236 233 223 214 212 215 217 218 218 218 219 219 220 220 220 220 220 220 220 221 219 219 219 218 218 220 222 224 228 230 229 229 230 231 232 233 234 234 233 232 232 231 232 232 233 234
11 302 316 323 314 304 299 295 280 253 237 237 233 213 204 210 212 213 212 199 201 222 222 195 205 226 238 221 215 234 245 249 254 253 242 229 230 229 225 229 236 236 230 220 215 215 216 217 217 218 219 220 221 221 220 221 221 221 220 220 220 220 220 218 218 220 223 227 230 229 228 228 229 230 231 232 233 234 234 233 232 231 232 233 233 234
3 299 307 325 319 296 299 328 326 298 253 235 240 229 212 209 211 215 208 186 189 208 214 209 214 236 247 232 230 251 257 245 229 241 249 251 246 230 221 228 236 235 230 223 218 217 216 215 215 218 220 222 223 222 222 222 221 221 220 220 222 222 220 219 219 221 225 229 229 228 228 229 229 230 231 232 232 233 233 233 233 232 232 232 233 234
217 279 300 321 315 289 297 319 324 317 279 236 233 225 217 211 208 213 210 196 193 194 202 214 217 229 231 198 200 240 245 240 237 235 248 265 270 252 238 238 242 238 229 222 220 220 219 220 221 223 224 225 225 225 226 225 223 224 226 226 225 222 219 219 221 223 225 227 227 227 228 228 228 229 231 231 231 231 232 233 233 233 232 232 233 233
208 234 275 299 294 284 296 310 319 300 243 238 226 205 207 208 199 202 212 210 202 201 207 213 215 227 223 167 180 225 235 230 217 191 334 323 311 281 256 248 249 244 231 222 221 223 222 223 225 226 226 227 228 230 229 227 228 231 233 230 225 221 220 222 223 224 225 226 226 227 228 227 228 230 231 230 229 229 230 232 233 233 232 232 232 233
235 241 259 263 248 274 295 313 315 245 233 255 265 196 201 200 187 195 210 213 210 212 213 207 223 230 211 172 186 197 157 110 93 78 62 52 40 312 261 254 257 251 233 221 221 225 226 226 226 227 228 228 230 231 229 228 230 233 233 229 225 223 224 225 225 226 226 226 226 227 227 227 228 230 230 229 228 228 230 232 232 232 232 232 232 233
228 237 244 238 233 259 286 280 247 261 276 287 301 260 184 179 172 184 213 238 233 211 196 197 219 223 180 170 171 152 135 110 81 62 53 57 62 59 65 240 256 252 237 225 221 224 226 228 230 233 236 235 232 229 228 229 231 232 230 228 226 225 226 225 225 227 226 225 226 227 227 228 228 229 228 227 227 228 230 231 231 231 231 231 232 233
216 223 224 236 231 222 254 263 254 285 297 289 295 3 12 246 192 175 189 252 260 197 184 193 197 175 145 155 158 150 140 112 69 39 34 50 62 63 68 91 166 231 237 232 227 225 227 229 230 233 237 237 233 231 230 230 230 230 228 227 226 225 225 224 225 226 227 227 227 227 227 228 227 227 227 227 227 229 230 231 231 230 230 230 231 232
205 208 198 215 227 198 229 268 280 282 276 269 321 336 340 325 292 186 170 236 263 217 192 188 172 151 144 152 160 156 133 96 77 345 11 39 59 70 78 87 99 126 197 223 230 234 237 238 236 234 234 233 232 232 231 228 226 227 227 226 226 226 225 225 227 228 229 230 230 229 229 228 226 226 228 229 229 230 231 231 231 230 229 230 231 232
207 208 200 212 236 220 214 240 262 252 243 290 326 328 328 323 312 237 182 230 262 234 162 165 162 154 154 160 160 150 118 108 194 263 352 37 53 68 81 87 87 87 93 115 174 220 235 241 241 240 238 237 236 233 228 224 224 225 227 227 228 227 226 228 231 232 233 234 233 230 228 227 227 228 230 232 233 232 232 231 231 230 229 230 231 232
208 201 192 211 230 228 218 235 253 243 262 329 334 327 317 315 317 188 200 229 243 59 99 130 146 146 151 154 145 120 106 151 180 220 44 62 62 66 73 76 77 75 72 76 84 95 158 229 240 245 246 245 245 243 236 231 228 228 230 231 229 229 231 236 239 239 237 236 232 229 228 228 228 230 232 234 235 234 233 232 231 230 229 230 231 231
198 172 174 207 217 210 197 226 273 255 294 344 336 324 315 311 247 161 219 225 163 89 99 108 111 117 122 128 125 101 95 127 130 120 98 84 75 70 66 63 62 55 49 49 47 52 56 51 262 292 276 260 253 249 244 240 236 235 236 235 232 233 238 244 247 246 242 238 234 231 231 231 231 232 233 235 235 234 232 231 231 231 232 231 230 230
168 150 168 188 183 175 175 177 302 264 5 358 337 324 325 334 156 205 269 146 114 112 113 106 103 108 106 103 108 114 116 117 115 107 97 86 78 74 68 63 58 47 42 34 16 8 5 354 350 359 355 338 296 267 254 248 245 244 243 240 239 242 245 246 247 246 243 239 236 235 235 234 234 233 233 234 234 233 232 231 231 232 232 231 230 229
180 166 241 198 172 145 140 85 337 252 346 354 338 330 0 21 265 286 305 95 113 115 113 106 102 108 109 107 110 115 116 113 106 100 95 92 89 86 83 82 77 60 36 20 2 348 344 339 327 321 328 333 329 316 292 271 260 255 252 250 251 254 253 249 247 244 240 238 237 236 236 237 236 235 233 233 233 233 232 230 229 230 230 230 229 228
227 168 182 225 181 149 176 175 149 226 331 343 338 331 328 314 305 310 314 88 121 115 111 107 108 114 116 116 117 114 111 107 104 101 98 93 91 88 85 84 85 81 62 339 329 327 329 329 323 318 314 306 299 296 290 286 279 268 261 260 262 261 255 250 248 246 243 242 241 239 238 238 238 236 234 232 231 231 230 229 227 228 228 229 229 228
255 178 190 227 206 145 173 198 137 10 336 338 343 340 325 323 339 360 351 22 111 115 114 112 114 118 118 117 116 111 107 106 103 100 96 92 89 86 83 76 69 67 52 265 264 279 296 310 319 317 308 297 288 276 266 266 269 269 267 264 263 259 254 251 248 246 245 245 245 244 242 238 235 235 234 231 227 226 227 226 225 224 225 226 226 226
272 246 223 217 208 121 99 118 303 359 356 351 355 356 349 346 2 22 23 37 76 101 110 111 113 116 116 115 110 104 103 106 104 99 95 91 86 83 82 78 67 51 353 274 263 263 269 279 288 290 289 286 280 275 270 265 263 264 264 261 256 253 252 250 247 246 247 247 246 246 242 236 231 230 230 227 225 224 224 224 223 222 222 223 224 224
234 243 244 117 158 158 108 147 219 9 25 1 359 5 6 2 7 25 40 48 66 84 92 98 103 106 106 105 101 97 95 94 93 89 84 78 73 69 66 64 56 41 22 350 313 298 290 287 284 280 277 275 272 271 270 268 266 267 265 263 259 257 256 254 251 250 251 249 247 244 240 234 230 227 225 223 222 221 220 221 221 221 221 222 222 221
222 252 276 157 191 152 112 160 221 58 48 21 11 17 15 7 5 21 48 61 69 78 84 89 92 95 97 97 99 98 92 85 80 77 71 60 50 43 35 30 24 9 2 0 351 341 333 322 313 302 292 285 279 273 270 270 272 273 271 267 263 259 258 260 260 258 256 253 248 243 239 234 231 227 224 222 220 218 217 217 218 220 224 226 224 221
284 279 222 187 165 97 92 129 235 70 54 27 23 27 25 17 11 20 51 69 72 76 84 90 92 95 98 102 105 106 100 92 87 84 78 68 55 43 29 17 5 348 339 339 338 332 326 319 315 312 310 310 308 304 301 298 294 290 284 278 272 266 263 264 266 264 259 253 247 242 239 235 231 228 224 220 217 217 218 219 219 221 225 227 225 224
273 233 202 172 142 134 138 205 197 131 94 21 32 40 31 21 20 26 48 64 68 72 81 90 94 97 99 101 104 105 101 96 92 86 80 73 64 56 45 31 13 355 345 339 331 324 321 316 311 311 317 325 326 323 319 315 311 306 299 289 281 275 271 271 272 270 263 256 249 243 237 232 227 224 220 216 214 214 214 215 216 217 219 220 220 222
240 231 237 170 132 160 184 184 165 135 128 147 101 85 74 43 38 39 45 57 66 72 78 84 88 90 91 93 96 97 96 94 90 85 81 77 72 66 60 54 45 37 29 18 7 1 352 334 317 310 311 315 320 323 323 322 320 318 313 305 293 280 271 267 266 262 256 252 248 243 237 230 225 220 216 213 213 212 209 206 205 207 210 214 218 220